[[{"header":{"parameterUnit":"m.s-1","parameterCategory":1,"la1":30.2991,"la2":30.254,"lo1":-89.0895,"lo2":-89.0444,"dy":0.0017,"dx":0.0017,"nx":28,"ny":28,"refTime":"2024-03-25T21:00:00:Z","depth":0,"parameterNumber":2,"parameterNumberName":"U-component_of_WINDS"},"data":[0,0,0,0,0,0,0,0,0,0,0,0,0,0,0,0,0,0,0,0,0,0,0,0,0,0,0,0,0,0,0,0,0,0,0,0,0,0,0,0,0,0,0,0,0,0,0,0,0,0,0,0,0,0,0,0,0,0,-1.0498,-1.05,0,-1.0683,-1.0686,-1.0688,-1.0795,-1.0796,-1.0796,-1.0796,-1.0993,-1.0998,-1.1003,0,0,0,0,0,0,0,0,0,0,0,0,0,-1.0244,-1.0248,-1.0497,-1.05,-1.0502,-1.0683,-1.0686,-1.0688,-1.0795,-1.0796,-1.0796,-1.0797,-1.0992,-1.0997,-1.1003,0,0,0,0,0,0,0,0,0,0,0,0,0,-1.0384,-1.0249,-1.0497,-1.0577,-1.0586,-1.0683,-1.0686,-1.0689,-1.0795,-1.0796,-1.0796,-1.0797,-1.099,-1.0997,-1.1004,-1.1037,0,0,-1.1026,-1.103,0,0,0,0,0,0,0,0,-1.0376,-1.0393,-1.0563,-1.0572,-1.0582,-1.0717,-1.0668,-1.0806,-1.0795,-1.0716,-1.0797,-1.0797,-1.0901,-1.0916,-1.095,-1.1046,-1.1055,-1.1027,-1.1031,-1.1035,-1.1037,0,0,0,0,0,0,0,-1.0366,-1.0386,-1.0571,-1.0565,-1.0577,-1.0607,-1.0627,-1.0695,-1.0803,-1.0723,-1.0731,-1.0751,-1.0907,-1.0942,-1.0955,-1.1058,-1.1027,-1.1033,-1.1038,-1.1041,-1.1194,-1.1194,0,0,0,0,0,0,-1.0343,-1.0377,-1.0565,-1.0577,-1.0478,-1.0611,-1.0634,-1.0673,-1.0803,-1.0823,-1.0751,-1.0756,-1.093,-1.0946,-1.0962,-1.1011,-1.1035,-1.1041,-1.1046,-1.1195,-1.1194,-1.1194,0,0,0,0,0,0,-1.0337,-1.0358,-1.0558,-1.0479,-1.0507,-1.0614,-1.0658,-1.0676,-1.0712,-1.0824,-1.0844,-1.0767,-1.0931,-1.0952,-1.1018,-1.1019,-1.1045,-1.1051,-1.1195,-1.1195,-1.1194,-1.1107,0,0,0,0,0,0,-1.0329,-1.0355,-1.0367,-1.0479,-1.0511,-1.0607,-1.0658,-1.068,-1.0724,-1.0732,-1.0844,-1.0863,-1.0933,-1.1006,-1.1025,-1.103,-1.1057,-1.1195,-1.1195,-1.1194,-1.111,-1.1104,-1.1098,0,0,0,0,0,-1.0319,-1.0336,-1.0367,-1.0389,-1.0527,-1.0607,-1.0626,-1.0704,-1.0723,-1.0737,-1.0809,-1.086,-1.1016,-1.1012,-1.1034,-1.1041,-1.1196,-1.1195,-1.1194,-1.1113,-1.1105,-1.1098,0,0,0,0,0,0,-1.0223,-1.0352,-1.0388,-1.044,-1.0512,-1.0625,-1.0645,-1.0692,-1.0761,-1.0767,-1.0862,-1.0887,-1.0944,-1.1,-1.0993,-1.1082,-1.1112,-1.1115,-1.1043,-1.1036,-1.103,-1.1015,-1.1063,0,0,0,0,0,-1.0208,-1.026,-1.0371,-1.0407,-1.0441,-1.0536,-1.0574,-1.0628,-1.0707,-1.0738,-1.0815,-1.0892,-1.0959,-1.1001,-1.1068,-1.112,-1.1147,-1.1136,-1.1129,-1.1124,-1.1126,-1.1159,-1.1156,-1.1192,-1.1192,-1.1192,0,0,-1.0177,-1.0254,-1.0282,-1.039,-1.0451,-1.0506,-1.0561,-1.0616,-1.0658,-1.0748,-1.0814,-1.0873,-1.0966,-1.1024,-1.1054,-1.1073,-1.1122,-1.1123,-1.1118,-1.1123,-1.1158,-1.1155,-1.1152,-1.1191,-1.1191,-1.1191,0,0,-1.0149,-1.0212,-1.0249,-1.031,-1.0402,-1.0466,-1.0475,-1.0582,-1.0624,-1.0692,-1.0761,-1.0814,-1.0926,-1.0989,-1.1036,-1.1035,-1.1084,-1.1054,-1.1022,-1.1054,-1.1051,-1.1049,-1.1049,-1.1048,-1.1056,-1.1056,-1.1056,0,-1.01,-1.0182,-1.0263,-1.0314,-1.0361,-1.0443,-1.0483,-1.0539,-1.0649,-1.0681,-1.07,-1.0843,-1.0911,-1.0987,-1.0987,-1.1022,-1.1037,-1.1041,-1.1044,-1.1043,-1.1043,-1.1044,-1.1044,-1.1052,-1.1052,-1.1053,-1.1053,0,-1.0118,-1.0174,-1.0194,-1.0296,-1.0345,-1.0391,-1.0481,-1.0522,-1.0572,-1.0635,-1.0705,-1.0789,-1.0876,-1.0899,-1.0949,-1.0982,-1.0991,-1.1025,-1.1058,-1.1033,-1.1037,-1.1038,-1.1046,-1.1047,-1.1048,-1.1049,0,0,-1.0033,-1.018,-1.0186,-1.0234,-1.0343,-1.039,-1.0441,-1.0524,-1.0557,-1.0632,-1.0678,-1.0772,-1.0805,-1.0859,-1.0917,-1.0945,-1.094,-1.0977,-1.0981,-1.0967,-1.0984,-1.0957,-1.0956,-1.0974,-1.0974,-1.0974,-1.0977,0,-1.0021,-1.0112,-1.0188,-1.0253,-1.0307,-1.0387,-1.0432,-1.0505,-1.0566,-1.0623,-1.0692,-1.0757,-1.0796,-1.0828,-1.0859,-1.0933,-1.0944,-1.0935,-1.102,-1.1022,-1.0993,-1.0958,-1.0929,-1.0927,-1.0978,-1.0979,-1.0979,0,-1.0018,-1.0087,-1.0156,-1.0262,-1.0287,-1.0325,-1.0409,-1.0462,-1.0548,-1.0591,-1.0651,-1.0712,-1.0772,-1.0799,-1.0885,-1.0876,-1.0916,-1.0958,-1.096,-1.0971,-1.0998,-1.0968,-1.0928,-1.0927,-1.0981,-1.0981,-1.0981,0,-0.9949,-1.0061,-1.0117,-1.0156,-1.028,-1.0305,-1.0358,-1.0445,-1.0491,-1.0565,-1.0596,-1.0677,-1.0721,-1.0783,-1.0866,-1.0877,-1.0944,-1.0977,-1.0983,-1.0981,-1.0993,-1.0991,-1.0958,-1.1018,-1.1018,-1.1018,-1.1018,0,-0.9928,-0.9967,-1.0088,-1.0122,-1.017,-1.0259,-1.0305,-1.0366,-1.0442,-1.0492,-1.0568,-1.0614,-1.072,-1.078,-1.0845,-1.0907,-1.0927,-1.0964,-1.0981,-1.0958,-1.0953,-1.0985,-1.0987,-1.1018,-1.1018,-1.1018,-1.1018,0,-0.9859,-0.9941,-1.0008,-1.0119,-1.0149,-1.0179,-1.0276,-1.0315,-1.038,-1.0443,-1.0463,-1.0567,-1.0641,-1.073,-1.0833,-1.0878,-1.0934,-1.0959,-1.0904,-1.0914,-1.0914,-1.0913,-1.0902,-1.0905,-1.0961,-1.096,-1.096,0,-0.9839,-0.9871,-0.9986,-1.0024,-1.0075,-1.0135,-1.0182,-1.0272,-1.0318,-1.0419,-1.0446,-1.0526,-1.0594,-1.071,-1.0796,-1.0877,-1.0905,-1.0895,-1.0917,-1.0893,-1.0906,-1.0902,-1.0907,-1.0889,-1.0888,-1.0887,-1.0886,0,-0.9796,-0.9835,-0.9899,-0.9977,-1.003,-1.0097,-1.0167,-1.0194,-1.0299,-1.0348,-1.0424,-1.0477,-1.0582,-1.0662,-1.0753,-1.0812,-1.0867,-1.0879,-1.0885,-1.086,-1.0827,-1.0846,-1.0888,-1.0879,-1.0879,-1.088,-1.088,-1.0881,-0.9752,-0.9785,-0.9871,-0.994,-1.0002,-1.0066,-1.0107,-1.0178,-1.0242,-1.0333,-1.0384,-1.0459,-1.0548,-1.0676,-1.0733,-1.0795,-1.0814,-1.0822,-1.0824,-1.0825,-1.0818,-1.0817,-1.0812,-1.0812,-1.0813,-1.0813,-1.0813,0,-0.9713,-0.9773,-0.9835,-0.993,-0.9985,-1.0031,-1.0111,-1.0155,-1.0219,-1.0296,-1.0362,-1.0451,-1.0528,-1.0621,-1.0706,-1.0738,-1.0765,-1.0757,-1.0755,-1.0768,-1.0796,-1.0782,-1.0733,-1.0733,-1.0733,-1.0733,-1.0733,-1.0733,-0.9699,-0.9757,-0.9807,-0.9899,-0.996,-1.0032,-1.0074,-1.0135,-1.0197,-1.0291,-1.0355,-1.0415,-1.0499,-1.0591,-1.0665,-1.0691,-1.0719,-1.0703,-1.0736,-1.0759,-1.0766,-1.0773,-1.0761,-1.0708,-1.0708,-1.0704,-1.0704,-1.0704]},{"header":{"parameterUnit":"m.s-1","parameterCategory":1,"la1":30.2991,"la2":30.254,"lo1":-89.0895,"lo2":-89.0444,"dy":0.0017,"dx":0.0017,"nx":28,"ny":28,"refTime":"2024-03-25T21:00:00:Z","depth":0,"parameterNumber":3,"parameterNumberName":"V-component_of_WINDS"},"data":[0,0,0,0,0,0,0,0,0,0,0,0,0,0,0,0,0,0,0,0,0,0,0,0,0,0,0,0,0,0,0,0,0,0,0,0,0,0,0,0,0,0,0,0,0,0,0,0,0,0,0,0,0,0,0,0,0,0,6.8972,6.8974,0,6.9185,6.9187,6.919,6.9237,6.9236,6.9234,6.9233,6.9454,6.9461,6.9468,0,0,0,0,0,0,0,0,0,0,0,0,0,6.8609,6.8615,6.8972,6.8974,6.8977,6.9185,6.9188,6.9191,6.9238,6.9236,6.9234,6.9232,6.9451,6.946,6.9469,0,0,0,0,0,0,0,0,0,0,0,0,0,6.8788,6.8617,6.8971,6.9026,6.9033,6.9184,6.9188,6.9191,6.9238,6.9236,6.9233,6.9231,6.9449,6.9459,6.947,6.9583,0,0,6.9503,6.9508,0,0,0,0,0,0,0,0,6.8778,6.8802,6.9015,6.9022,6.903,6.9182,6.9141,6.9323,6.9239,6.916,6.9233,6.923,6.9365,6.9383,6.9428,6.9594,6.9603,6.9504,6.9511,6.9516,6.9519,0,0,0,0,0,0,0,6.8766,6.8793,6.9056,6.9018,6.9027,6.904,6.9063,6.9175,6.9273,6.9167,6.9171,6.9195,6.9369,6.9418,6.9434,6.9606,6.9504,6.9514,6.9521,6.9525,6.9878,6.988,0,0,0,0,0,0,6.8743,6.8782,6.905,6.9063,6.8896,6.9049,6.9074,6.9136,6.9272,6.9291,6.9197,6.9197,6.94,6.9421,6.9442,6.9585,6.9516,6.9526,6.9532,6.9875,6.9878,6.9881,0,0,0,0,0,0,6.8735,6.8767,6.9041,6.8924,6.8959,6.9057,6.9126,6.9141,6.919,6.9295,6.9313,6.9228,6.9399,6.9426,6.9548,6.9594,6.9531,6.9541,6.9872,6.9876,6.988,6.9872,0,0,0,0,0,0,6.8725,6.8764,6.8807,6.8924,6.8965,6.9143,6.9129,6.9147,6.9208,6.921,6.9329,6.9346,6.9399,6.9531,6.9559,6.9608,6.9549,6.9868,6.9874,6.9878,6.9869,6.9875,6.9881,0,0,0,0,0,6.8712,6.8796,6.8809,6.8841,6.9022,6.9145,6.9169,6.9228,6.9211,6.9257,6.9324,6.9343,6.9583,6.9543,6.9575,6.9627,6.9866,6.9872,6.9878,6.9866,6.9874,6.9881,0,0,0,0,0,0,6.8683,6.8813,6.8828,6.8953,6.9038,6.9153,6.9212,6.9234,6.9326,6.9324,6.9393,6.9419,6.9537,6.9594,6.9547,6.9745,6.9724,6.9737,6.9704,6.9713,6.9719,6.9704,6.9559,0,0,0,0,0,6.8691,6.878,6.8889,6.8989,6.903,6.9113,6.9169,6.9207,6.9298,6.9334,6.9411,6.9499,6.9595,6.9656,6.975,6.9876,6.9904,6.9928,6.9934,6.9939,6.995,7.0023,7.0035,6.9902,6.9902,6.9902,0,0,6.8709,6.8791,6.8843,6.8985,6.9055,6.9147,6.9143,6.924,6.9309,6.9349,6.9469,6.9528,6.9631,6.9756,6.9815,6.9807,6.9992,6.9947,6.995,6.9959,7.0031,7.0043,7.0054,6.9906,6.9906,6.9905,0,0,6.879,6.8859,6.8951,6.9021,6.9127,6.9182,6.9203,6.9316,6.9356,6.9478,6.951,6.9593,6.9756,6.9829,6.9887,6.9994,7.0016,7.0023,7.0057,7.0127,7.0137,7.0147,7.0188,7.0201,7.0033,7.0033,7.0033,0,6.8799,6.8938,6.8996,6.9092,6.9154,6.9193,6.9288,6.9353,6.9484,6.9527,6.9515,6.9722,6.9793,6.9937,6.9963,7.0008,7.0037,7.0011,7.0131,7.0141,7.0151,7.0191,7.0206,7.0033,7.0033,7.0033,7.0033,0,6.8945,6.9041,6.9102,6.9228,6.9296,6.9391,6.9465,6.9528,6.9559,6.9615,6.9739,6.9826,6.9939,6.9975,7.0007,7.0124,7.0116,7.0117,7.0098,7.0163,7.0202,7.0217,7.0034,7.0034,7.0034,7.0034,0,0,6.9016,6.9171,6.9193,6.9251,6.937,6.9446,6.9542,6.9652,6.9706,6.9794,6.9878,7.0015,7.0017,7.0083,7.0123,7.0184,7.0266,7.0178,7.0182,7.0194,7.0403,7.0403,7.042,7.028,7.0283,7.0285,7.0395,0,6.9113,6.9286,6.9341,6.9486,6.9576,6.9614,6.9699,6.9781,6.9836,6.9921,6.9982,7.0079,7.0073,7.0113,7.0175,7.0243,7.031,7.0235,7.0361,7.0365,7.0337,7.044,7.0441,7.054,7.041,7.0413,7.0415,0,6.9249,6.934,6.9494,6.9602,6.9642,6.9717,6.9823,6.9903,6.9998,7.0033,7.0107,7.0142,7.0245,7.0218,7.0363,7.0311,7.0365,7.0406,7.0411,7.0428,7.0396,7.0461,7.0573,7.0589,7.0439,7.0437,7.0435,0,6.9288,6.9448,6.9562,6.961,6.9739,6.9791,6.9847,6.9939,7.0002,7.0094,7.0136,7.0239,7.0296,7.0375,7.0438,7.0412,7.0578,7.0555,7.0613,7.0611,7.0648,7.0646,7.0773,7.0678,7.0678,7.0678,7.0677,0,6.9392,6.9486,6.9581,6.9651,6.9757,6.982,6.9923,6.9982,7.0063,7.0147,7.0185,7.0262,7.0338,7.0426,7.0475,7.0589,7.0614,7.0647,7.066,7.0645,7.0641,7.0684,7.068,7.0682,7.0681,7.068,7.0679,0,6.9455,6.9522,6.9649,6.976,6.979,6.9864,6.996,7.003,7.0085,7.019,7.0218,7.0306,7.0411,7.048,7.0615,7.0648,7.0773,7.0782,7.0741,7.0747,7.0802,7.0797,7.0963,7.0989,7.0874,7.0875,7.0876,0,6.9518,6.9591,6.971,6.9768,6.9824,6.9917,6.9981,7.0045,7.011,7.0224,7.0281,7.0388,7.0478,7.0644,7.0721,7.0824,7.0838,7.0889,7.0854,7.0838,7.0842,7.0838,7.0847,7.0896,7.0897,7.0897,7.0898,0,6.9625,6.9654,6.9745,6.9847,6.9922,7.0006,7.009,7.0136,7.0214,7.0286,7.0394,7.0463,7.06,7.0707,7.0817,7.0876,7.0902,7.0908,7.0927,7.0915,7.0889,7.0906,7.0759,7.0905,7.0904,7.0904,7.0903,7.0903,6.9692,6.9759,6.9853,6.9953,7.0022,7.01,7.0172,7.0236,7.0327,7.0443,7.0475,7.0588,7.0682,7.0832,7.0893,7.0983,7.0978,7.1005,7.1012,7.1019,7.1021,7.0872,7.1003,7.1003,7.1003,7.1003,7.1003,0,6.9802,6.9865,6.9955,7.0072,7.015,7.0165,7.0259,7.0324,7.0423,7.0507,7.0595,7.0719,7.0823,7.0907,7.1014,7.107,7.1085,7.1097,7.1095,7.1109,7.1018,7.0992,7.1083,7.1083,7.1083,7.1083,7.1083,7.1083,6.9869,6.9984,7.0025,7.0175,7.0237,7.0347,7.04,7.0472,7.054,7.0677,7.0763,7.0817,7.0902,7.1016,7.1113,7.1135,7.1174,7.1184,7.1209,7.1123,7.1115,7.1106,7.1082,7.1191,7.1191,7.1292,7.1293,7.1294]}]]